Weather History for Bogota, Colombia

Change the Weather History Date:

Tuesday, October 9, 2012

  Actual Average Record
Temperature  
Mean Temperature 56 °F -  
Max Temperature 69 °F 64 °F 71 °F (1997)
Min Temperature 43 °F 46 °F 39 °F (1997)
Degree Days  
Heating Degree Days 9    
Growing Degree Days 6 (Base 50)    
Moisture  
Dew Point 45 °F    
Average Humidity 71    
Maximum Humidity 100    
Minimum Humidity 24    
Precipitation  
Precipitation 0.00 in 0.14 in - ()
Sea Level Pressure  
Sea Level Pressure 30.35 in    
Wind  
Wind Speed 5 mph ()    
Max Wind Speed 14 mph    
Max Gust Speed -    
Visibility 7.1 miles    
Events Fog    
Averages and records for this station are not official NWS values.
T = Trace of Precipitation, MM = Missing Value Source: Averaged Metar Reports

Daily Weather History Graph

Daily Weather History Graph

Search for Another Location

Airport:

Trip Planner

Search our weather history database for the weather conditions in past years. The results will help you decide how hot, cold, wet, or windy it might be!

Date:

Astronomy

Oct. 09, 2012 Rise Set
Actual Time 5:42 AM COT 5:44 PM COT
Civil Twilight 5:21 AM COT 6:05 PM COT
Nautical Twilight 4:57 AM COT 6:29 PM COT
Astronomical Twilight 4:33 AM COT 6:54 PM COT
Moon 12:29 AM COT (10/9) 1:03 PM COT (10/9)
Length of Visible Light 12h 43m
Length of Day
12h 02m
Last Quarter, 36% of the Moon is Illuminated
Oct 9
Last Quarter
Oct 15
New
Oct 21
First Quarter
Oct 29
Full
Nov 6
Last Quarter

Hourly Weather History & Observations

Time (COT) Temp. Windchill Dew Point Humidity Pressure Visibility Wind Dir Wind Speed Gust Speed Precip Events Conditions
12:00 AM 50.0 °F - 46.4 °F 87% 30.40 in 6.2 mi NNE 3.5 mph - N/A   Partly Cloudy
1:00 AM 49 °F - 46 °F 85%  in 9 mi North 2.2 mph - -   Haze
1:00 AM 48.2 °F - 46.4 °F 93% 30.38 in 6.2 mi Variable 2.3 mph - N/A   Partly Cloudy
2:00 AM 48.2 °F - 44.6 °F 87% 30.35 in 6.2 mi NE 3.5 mph - N/A   Partly Cloudy
3:00 AM 48.2 °F - 44.6 °F 87% 30.34 in 6.2 mi NE 3.5 mph - N/A   Partly Cloudy
4:00 AM 46 °F - 44 °F 89%  in 9 mi NE 4.5 mph - -   Haze
4:00 AM 46.4 °F 45.2 °F 44.6 °F 93% 30.34 in 6.2 mi NE 3.5 mph - N/A   Unknown
5:00 AM 42.8 °F 39.3 °F 42.8 °F 100% 30.35 in 6.2 mi NNE 5.8 mph - N/A Fog Shallow Fog
5:30 AM 42.8 °F 40.1 °F 42.8 °F 100% 30.37 in 6.2 mi NNE 4.6 mph - N/A Fog Shallow Fog
6:00 AM 44.6 °F 43.1 °F 44.6 °F 100% 30.38 in 6.2 mi East 3.5 mph - N/A Fog Shallow Fog
7:00 AM 50 °F - 46 °F 81%  in 10 mi ENE 4.5 mph - -   Haze
7:00 AM 50.0 °F - 46.4 °F 87% 30.38 in 6.2 mi ENE 4.6 mph - N/A   Scattered Clouds
7:40 AM 53.6 °F - 46.4 °F 77% 30.39 in 6.2 mi ENE 4.6 mph - N/A   Scattered Clouds
8:00 AM 55.4 °F - 46.4 °F 72% 30.39 in 6.2 mi NE 4.6 mph - N/A   Scattered Clouds
9:00 AM 59.0 °F - 44.6 °F 59% 30.40 in 6.2 mi ENE 9.2 mph - N/A   Scattered Clouds
10:00 AM 64 °F - 46 °F 40%  in 11 mi East 6.7 mph - -   Haze
10:00 AM 64.4 °F - 46.4 °F 52% 30.40 in 6.2 mi East 6.9 mph - N/A   Scattered Clouds
11:00 AM 66.2 °F - 42.8 °F 43% 30.36 in 6.2 mi SE 11.5 mph - N/A   Scattered Clouds
12:00 PM 68.0 °F - 42.8 °F 40% 30.34 in 6.2 mi East 13.8 mph - N/A   Scattered Clouds
1:00 PM 69 °F - 40 °F 24%  in 11 mi East 11.2 mph - -   Haze
1:00 PM 69.8 °F - 41.0 °F 35% 30.33 in 6.2 mi East 10.4 mph - N/A   Scattered Clouds
2:00 PM 68.0 °F - 41.0 °F 37% 30.30 in 6.2 mi East 8.1 mph - N/A   Mostly Cloudy
3:00 PM 69.8 °F - 42.8 °F 38% 30.28 in 6.2 mi ESE 11.5 mph - N/A   Mostly Cloudy
4:00 PM 66 °F - 38 °F 25%  in 11 mi East 11.2 mph - -   Haze
4:00 PM 66.2 °F - 39.2 °F 37% 30.27 in 6.2 mi East 6.9 mph - N/A   Scattered Clouds
5:00 PM 64.4 °F - 39.2 °F 40% 30.26 in 6.2 mi ENE 3.5 mph - N/A   Scattered Clouds
6:00 PM 55.4 °F - 51.8 °F 88% 30.30 in 6.2 mi WNW 8.1 mph - N/A   Scattered Clouds
7:00 PM 54 °F - 50 °F 82%  in 11 mi NW 4.5 mph - -   Haze
7:00 PM 53.6 °F - 50.0 °F 88% 30.32 in 6.2 mi NW 3.5 mph - N/A   Partly Cloudy
8:00 PM 51.8 °F - 48.2 °F 88% 30.35 in 6.2 mi NNE 3.5 mph - N/A   Partly Cloudy
9:00 PM 51.8 °F - 50.0 °F 94% 30.37 in 6.2 mi Variable 2.3 mph - N/A   Partly Cloudy
10:00 PM 47 °F - 46 °F 93%  in 9 mi North 4.5 mph - -   Mist
10:00 PM 48.2 °F - 46.4 °F 93% 30.37 in 6.2 mi North 3.5 mph - N/A   Partly Cloudy
11:00 PM 46.4 °F 45.2 °F 44.6 °F 93% 30.38 in 6.2 mi North 3.5 mph - N/A   Partly Cloudy